Regional Weather Roundup
Issued by NWS Cleveland, OH

Home | Current Version | Previous Version | Text Only | Print | Product List | Glossary On
Versions: 1 2 3 4 5 6 7 8 9 10 11 12 13 14 15 16 17 18 19 20 21 22 23 24 25 26 27 28 29 30 31 32 33 34 35 36 37 38 39 40 41 42 43 44 45 46 47 48 49 50
000
ASUS41 KCLE 191710
RWRCLE
OHIO REGIONAL WEATHER ROUNDUP
NATIONAL WEATHER SERVICE CLEVELAND, OH
100 PM EDT FRI SEP 19 2014

NOTE: "FAIR" INDICATES FEW OR NO CLOUDS BELOW 12,000 FEET WITH NO
SIGNIFICANT WEATHER AND/OR OBSTRUCTIONS TO VISIBILITY.

OHZ001>008-015>018-024>027-034-035-043-044-191800-
   NORTHWEST OHIO

CITY           SKY/WX    TMP DP  RH WIND       PRES   REMARKS
DEFIANCE       SUNNY     68  51  54 MISG      30.21F
FINDLAY        SUNNY     68  46  45 E6        30.20F
TOLEDO EXPRESS MOSUNNY   63  49  60 CALM      30.21F
TOLEDO EXEC    MOSUNNY   65  49  56 SE7       30.22F
LIMA           MOSUNNY   68  49  50 E7        30.21F
$$

OHZ009>014-019>023-028>033-038-089-191800-
   NORTHEAST OHIO

CITY           SKY/WX    TMP DP  RH WIND       PRES   REMARKS
CLE-HOPKINS    MOSUNNY   65  46  50 VRB3      30.25F
CLE-LAKEFRONT  SUNNY     66  46  48 E8        30.22F
CUY CO. ARPT   MOSUNNY   61  50  67 S7        30.24F
LORAIN-ELYRIA  MOSUNNY   68  48  48 VRB5      30.23F
ASHTABULA      MOSUNNY   62  46  55 E8        30.26F
AKRON-CANTON   MOSUNNY   67  46  47 CALM      30.23F
WOOSTER        SUNNY     69  47  45 E6        30.23F
MANSFIELD      SUNNY     65  46  50 VRB5      30.22F
YOUNGSTOWN     MOSUNNY   65  48  54 CALM      30.25F
$$

OHZ042-051>053-060>062-070>072-077>081-191800-
  SOUTHWEST OHIO

CITY           SKY/WX    TMP DP  RH WIND       PRES   REMARKS
CINC-COVINGTON SUNNY     71  47  42 E12G18    30.17F
CINC-LUNKEN    SUNNY     72  51  47 VRB5      30.18F
HAMILTON       SUNNY     72  52  49 E12       30.19F
DAYTON         MOSUNNY   70  46  42 E7        30.20F
WRIGHT-PAT AFB MOSUNNY   70  45  41 NE12      30.19F
DAYTON GENERAL MOSUNNY   69  51  52 NE7       30.18F
WILMINGTON     SUNNY     69  49  48 E9        30.18F
$$

OHZ036-037-039>041-045>050-054>059-063>069-073>076-082>088-191800-
  CENTRAL AND SOUTHEAST OHIO

CITY           SKY/WX    TMP DP  RH WIND       PRES   REMARKS
COLUMBUS       SUNNY     71  44  37 VRB3      30.19F
OSU AIRPORT    SUNNY     69  42  37 NE8       30.19F
BOLTON FIELD   SUNNY     70  48  46 NE8       30.20F
RICKENBACK AFB SUNNY     69  48  46 E7        30.18F
NEWARK         SUNNY     69  47  45 NE8       30.20F
MARION         SUNNY     68  45  43 VRB6      30.21F
LANCASTER      SUNNY     72  49  44 NE7       30.19F
ZANESVILLE     SUNNY     70  48  45 VRB5      30.20F
NEW PHILLY     SUNNY     70  50  49 VRB7      30.22F
$$


USA.gov is the U.S. government's official web portal to all federal, state and local government web resources and services.